This is the latest recevied weather packets stored in our database for station/object SR4DIG-13. If no packets are shown the sender has not sent any weather packets the latest 10 day(s).
| Time | Temp. | Humidity | Pressure | Rain* | Wind** | Luminosity | Snow |
|---|---|---|---|---|---|---|---|
| 1787919750 | 26.67° C | 39% | 1021.9 hPa | 0 mm | - | - | - |
| 1787919413 | 26.11° C | 39% | 1022 hPa | 0 mm | - | - | - |
| 1787919087 | 26.11° C | 40% | 1022.1 hPa | 0 mm | - | - | - |
| 1787918602 | 25.56° C | 40% | 1022.2 hPa | 0 mm | - | - | - |
| 1787918301 | 25.56° C | 41% | 1022.2 hPa | 0 mm | - | - | - |
| 1787918001 | 25° C | 41% | 1022.3 hPa | 0 mm | - | - | - |
| 1787917700 | 25.56° C | 41% | 1022.3 hPa | 0 mm | - | - | - |
| 1787917100 | 25.56° C | 41% | 1022.4 hPa | 0 mm | - | - | - |
| 1787916797 | 25° C | 41% | 1022.4 hPa | 0 mm | - | - | - |
| 1787916496 | 24.44° C | 42% | 1022.4 hPa | 0 mm | - | - | - |
| 1787916195 | 24.44° C | 42% | 1022.6 hPa | 0 mm | - | - | - |
| 1787915895 | 24.44° C | 41% | 1022.6 hPa | 0 mm | - | - | - |
| 1787915594 | 25° C | 41% | 1022.6 hPa | 0 mm | - | - | - |
| 1787915292 | 25.56° C | 41% | 1022.7 hPa | 0 mm | - | - | - |
| 1787914991 | 25° C | 42% | 1022.6 hPa | 0 mm | - | - | - |
| 1787914691 | 23.89° C | 43% | 1022.6 hPa | 0 mm | - | - | - |
| 1787914390 | 23.89° C | 44% | 1022.9 hPa | 0 mm | - | - | - |
| 1787914089 | 23.89° C | 42% | 1022.7 hPa | 0 mm | - | - | - |
| 1787913788 | 23.89° C | 43% | 1022.7 hPa | 0 mm | - | - | - |
| 1787913487 | 23.89° C | 44% | 1022.8 hPa | 0 mm | - | - | - |
| 1787913186 | 23.89° C | 44% | 1022.8 hPa | 0 mm | - | - | - |
| 1787912563 | 23.89° C | 43% | 1022.9 hPa | 0 mm | - | - | - |
| 1787912262 | 25° C | 41% | 1023.1 hPa | 0 mm | - | - | - |
| 1787911962 | 25° C | 42% | 1023.2 hPa | 0 mm | - | - | - |
| 1787911661 | 24.44° C | 42% | 1023.2 hPa | 0 mm | - | - | - |
* Rain latest hour (hover to see other rain measurements)
** Current wind speed in m/s (hover to see current wind gust speed)